THORAD AGENA D DEB

Satellite information

Favourite Embed

Satellite Type and Status

DEBRISIN ORBIT

Key statistics

Satellite THORAD AGENA D DEB at a glance.

Uptime

20293

Days in orbit

Revolutions

≈ 15.4

Per day

Orbit

SSO

Sun Synchronous Orbit

Inclination

99.6

Latest

Satellite identification and parameters

Extended collection of information and parameters for THORAD AGENA D DEB.

Object identification

Identified? True

Debris? True

Object name: THORAD AGENA D DEB

International designator: 1970-025DK

Object number (NORAD): 4765

Object ID (CCSDS): 4765

Country: UNITED STATES OF AMERICA (US)

Current information (Y/N): Y

RCS size: MEDIUM

Orbital parameters

Period: 93.744 minutes

Inclination: 99.5688 deg

SMA: 6835.773 km

Apoapsis: 463.679 km

Periapsis: 451.597 km

RAAN: 10.6111 deg

Eccentricy: 0.00088379

Argument of periapsis: 52.0186 deg

Mean anomaly: 308.1848 deg

Mean motion: 15.36106491 rev/day

Mean motion (dot): 0.00205522 rev/day2

B* drag term: 0.0056885529 1/REarth

Two-line elements (TLE)

Creation date: Oct. 28, 2025, 7:11 p.m.

Reference frame: TEME

Reference center: EARTH

Epoch: Oct. 28, 2025, 11:18 a.m. UTC

TLE line 0: 0 THORAD AGENA D DEB

TLE line 1: 1 04765U 70025DK 25301.47133879 .00205522 00000-0 56886-2 0 9990

TLE line 2: 2 04765 99.5688 10.6111 0008838 52.0186 308.1848 15.36106491874803

Live tracking on map

Real-time ground track for satellite THORAD AGENA D DEB.

In-orbit conjunctions

A list of the most updated potential collisions computed for object THORAD AGENA D DEB.

Target Orbit TCA Probability of collision Miss distance Type
OBJECT M SSO 2025-04-17 03:03:50 0.0001255966 976.0 (m) UNKNOWN
COSMOS 2251 DEB LEO 2024-11-21 11:57:46 0.0001476341 170.0 (m) DEBRIS

Associated space launch

Meteorological research and development satellite

THORAD AGENA D DEB was lifted into orbit during the mission ‘Thorad SLV-2G Agena D | Nimbus 4’, on board a Thorad SLV-2G Agena D space rocket.

The launch took place on April 8, 1970, 8:17 a.m. from Space Launch Complex 2E.

For more information about the launch, click the button.

Launch to space Thorad SLV-2G Agena D | Nimbus 4
Thorad SLV-2G Agena D | Nimbus 4

Agency: N/A

Status: Launch Successful

Launch date: April 8, 1970, 8:17 a.m. UTC

Rocket: Thorad SLV-2G Agena D

Launch pad: Space Launch Complex 2E

Location: Vandenberg SFB, CA, USA

...

Latest news about this satellite

There are no fresh news available about this satellite. Check back as we update our databases every day.


Newsletter sign-up

Weekly statistics, charts and insights to help you stay on top of the space industry.